| time (UTC) | temp C | wind direction | speed KPH | gust KPH | rain 1hr cm | rain 24hr cm | rain mn cm | humidity % | barometer mb |
| 20260904200358 | 36 | 242 | 3.2 | 17.7 | 0.00 | 0.00 | 0.00 | 42 | 1010.1 |
| 20260904195352 | 36 | 176 | 4.8 | 17.7 | 0.00 | 0.00 | 0.00 | 43 | 1010.2 |
| 20260904194356 | 36 | 216 | 3.2 | 14.5 | 0.00 | 0.00 | 0.00 | 43 | 1010.3 |
| 20260904193352 | 36 | 128 | 3.2 | 11.3 | 0.00 | 0.00 | 0.00 | 44 | 1010.5 |
| 20260904192341 | 36 | 229 | 3.2 | 12.9 | 0.00 | 0.00 | 0.00 | 45 | 1010.6 |
| 20260904191340 | 36 | 259 | 4.8 | 12.9 | 0.00 | 0.00 | 0.00 | 46 | 1010.7 |
| 20260904190402 | 36 | 238 | 4.8 | 14.5 | 0.00 | 0.00 | 0.00 | 45 | 1010.9 |
| 20260904185400 | 35 | 163 | 3.2 | 14.5 | 0.00 | 0.00 | 0.00 | 46 | 1011.0 |
| 20260904184345 | 35 | 184 | 4.8 | 12.9 | 0.00 | 0.00 | 0.00 | 47 | 1011.2 |
| 20260904182217 | 35 | 107 | 4.8 | 14.5 | 0.00 | 0.00 | 0.00 | 47 | 1011.5 |
| 20260904181223 | 35 | 92 | 3.2 | 14.5 | 0.00 | 0.00 | 0.00 | 48 | 1011.5 |
| 20260904180153 | 35 | 100 | 3.2 | 14.5 | 0.00 | 0.00 | 0.00 | 48 | 1011.7 |
| 20260904175119 | 34 | 238 | 3.2 | 12.9 | 0.00 | 0.00 | 0.00 | 49 | 1011.8 |
| 20260904174127 | 33 | 161 | 3.2 | 11.3 | 0.00 | 0.00 | 0.00 | 48 | 1011.9 |
| 20260904172026 | 34 | 240 | 3.2 | 9.7 | 0.00 | 0.00 | 0.00 | 47 | 1012.2 |
| 20260904171047 | 33 | 243 | 3.2 | 14.5 | 0.00 | 0.00 | 0.00 | 49 | 1012.3 |
| 20260904164943 | 33 | 173 | 4.8 | 14.5 | 0.00 | 0.00 | 0.00 | 52 | 1012.5 |
| 20260904163920 | 32 | 290 | 4.8 | 12.9 | 0.00 | 0.00 | 0.00 | 56 | 1012.5 |
| 20260904161747 | 32 | 186 | 3.2 | 12.9 | 0.00 | 0.00 | 0.00 | 56 | 1012.7 |
| 20260904160735 | 31 | 140 | 1.6 | 12.9 | 0.00 | 0.00 | 0.00 | 62 | 1012.7 |
| 20260904155754 | 31 | 202 | 3.2 | 12.9 | 0.00 | 0.00 | 0.00 | 62 | 1012.6 |
| 20260904154751 | 30 | 211 | 3.2 | 11.3 | 0.00 | 0.00 | 0.00 | 64 | 1012.6 |
| 20260904153742 | 30 | 223 | 1.6 | 11.3 | 0.00 | 0.00 | 0.00 | 67 | 1012.6 |
| 20260904152804 | 29 | 86 | 1.6 | 8.0 | 0.00 | 0.00 | 0.00 | 70 | 1012.6 |
| 20260904151807 | 28 | 115 | 1.6 | 9.7 | 0.00 | 0.00 | 0.00 | 73 | 1012.6 |
| 20260904145620 | 28 | 161 | 3.2 | 11.3 | 0.00 | 0.00 | 0.00 | 73 | 1012.6 |
| 20260904143458 | 28 | 141 | 1.6 | 12.9 | 0.00 | 0.00 | 0.00 | 75 | 1012.4 |
| 20260904142456 | 27 | 245 | 1.6 | 9.7 | 0.00 | 0.00 | 0.00 | 77 | 1012.4 |
| 20260904141428 | 27 | 132 | 0.0 | 4.8 | 0.00 | 0.00 | 0.00 | 78 | 1012.4 |
| 20260904140440 | 27 | 182 | 0.0 | 9.7 | 0.00 | 0.00 | 0.00 | 79 | 1012.3 |
| 20260904135401 | 27 | 173 | 1.6 | 9.7 | 0.00 | 0.00 | 0.00 | 79 | 1012.4 |
| 20260904134342 | 27 | 184 | 0.0 | 12.9 | 0.00 | 0.00 | 0.00 | 79 | 1012.3 |
| 20260904133316 | 26 | 160 | 1.6 | 12.9 | 0.00 | 0.00 | 0.00 | 79 | 1012.2 |
| 20260904131212 | 26 | 111 | 0.0 | 3.2 | 0.00 | 0.00 | 0.00 | 80 | 1012.0 |
| 20260904130139 | 26 | 94 | 0.0 | 0.0 | 0.00 | 0.00 | 0.00 | 80 | 1011.8 |
| 20260904125150 | 26 | 116 | 0.0 | 8.0 | 0.00 | 0.00 | 0.00 | 81 | 1011.7 |
| 20260904124135 | 26 | 134 | 0.0 | 4.8 | 0.00 | 0.00 | 0.00 | 81 | 1011.6 |
| 20260904123154 | 26 | 138 | 0.0 | 0.0 | 0.00 | 0.00 | 0.00 | 81 | 1011.6 |
| 20260904122129 | 26 | 138 | 0.0 | 1.6 | 0.00 | 0.00 | 0.00 | 81 | 1011.4 |
| 20260904114907 | 26 | 139 | 0.0 | 0.0 | 0.00 | 0.00 | 0.00 | 80 | 1011.3 |
| 20260904113836 | 26 | 138 | 0.0 | 3.2 | 0.00 | 0.00 | 0.00 | 80 | 1011.2 |
| 20260904112806 | 26 | 138 | 0.0 | 3.2 | 0.00 | 0.00 | 0.00 | 80 | 1011.2 |
| 20260904111818 | 26 | 139 | 0.0 | 0.0 | 0.00 | 0.00 | 0.00 | 80 | 1011.2 |
| 20260904110816 | 26 | 139 | 0.0 | 0.0 | 0.00 | 0.00 | 0.00 | 80 | 1011.2 |
| 20260904105825 | 26 | 139 | 0.0 | 0.0 | 0.00 | 0.00 | 0.00 | 80 | 1011.2 |
| 20260904103718 | 26 | 139 | 0.0 | 0.0 | 0.00 | 0.00 | 0.00 | 79 | 1011.1 |
| 20260904102722 | 26 | 119 | 0.0 | 0.0 | 0.00 | 0.00 | 0.00 | 79 | 1011.0 |
| 20260904101709 | 26 | 119 | 0.0 | 3.2 | 0.00 | 0.00 | 0.00 | 79 | 1011.0 |
| 20260904100652 | 26 | 132 | 0.0 | 1.6 | 0.00 | 0.00 | 0.00 | 79 | 1010.9 |
| 20260904094444 | 26 | 132 | 0.0 | 1.6 | 0.00 | 0.00 | 0.00 | 78 | 1010.8 |
| 20260904093439 | 26 | 132 | 0.0 | 0.0 | 0.00 | 0.00 | 0.00 | 78 | 1010.9 |
| 20260904092457 | 26 | 142 | 0.0 | 0.0 | 0.00 | 0.00 | 0.00 | 77 | 1010.9 |
| 20260904090307 | 26 | 117 | 0.0 | 3.2 | 0.00 | 0.00 | 0.00 | 77 | 1010.7 |
| 20260904085301 | 26 | 129 | 0.0 | 8.0 | 0.00 | 0.00 | 0.00 | 77 | 1010.7 |
| 20260904084303 | 26 | 139 | 0.0 | 3.2 | 0.00 | 0.00 | 0.00 | 76 | 1010.7 |
| 20260904083251 | 26 | 139 | 0.0 | 0.0 | 0.00 | 0.00 | 0.00 | 76 | 1010.6 |
| 20260904082218 | 26 | 149 | 0.0 | 0.0 | 0.00 | 0.00 | 0.00 | 76 | 1010.6 |
| 20260904081144 | 26 | 149 | 0.0 | 0.0 | 0.00 | 0.00 | 0.00 | 76 | 1010.7 |
| 20260904080139 | 26 | 167 | 0.0 | 3.2 | 0.00 | 0.00 | 0.00 | 75 | 1010.7 |
| 20260904075136 | 26 | 177 | 0.0 | 3.2 | 0.00 | 0.00 | 0.00 | 75 | 1010.6 |
| 20260904074121 | 26 | 153 | 0.0 | 0.0 | 0.00 | 0.00 | 0.00 | 75 | 1010.7 |
| 20260904073130 | 26 | 153 | 0.0 | 6.4 | 0.00 | 0.00 | 0.00 | 74 | 1010.7 |
| 20260904072113 | 26 | 182 | 0.0 | 3.2 | 0.00 | 0.00 | 0.00 | 74 | 1010.8 |
| 20260904071043 | 26 | 211 | 0.0 | 9.7 | 0.00 | 0.00 | 0.00 | 73 | 1010.9 |
| 20260904070047 | 26 | 211 | 0.0 | 6.4 | 0.00 | 0.00 | 0.00 | 73 | 1011.0 |
| 20260904065107 | 26 | 97 | 1.6 | 8.0 | 0.00 | 0.00 | 0.00 | 73 | 1011.0 |
| 20260904064030 | 26 | 175 | 0.0 | 4.8 | 0.00 | 0.00 | 0.00 | 72 | 1011.0 |
| 20260904063037 | 26 | 136 | 0.0 | 8.0 | 0.00 | 0.00 | 0.00 | 71 | 1011.1 |
| 20260904062028 | 26 | 184 | 0.0 | 6.4 | 0.00 | 0.00 | 0.00 | 70 | 1011.1 |
| 20260904061042 | 27 | 118 | 0.0 | 0.0 | 0.00 | 0.00 | 0.00 | 69 | 1011.2 |
| 20260904053708 | 27 | 146 | 1.6 | 6.4 | 0.00 | 0.00 | 0.00 | 66 | 1011.1 |
| 20260904052713 | 27 | 195 | 0.0 | 4.8 | 0.00 | 0.00 | 0.00 | 65 | 1011.1 |
| 20260904050514 | 27 | 108 | 1.6 | 8.0 | 0.00 | 0.00 | 0.00 | 64 | 1011.0 |
| 20260904045452 | 27 | 148 | 1.6 | 8.0 | 0.00 | 0.00 | 0.00 | 63 | 1010.8 |
| 20260904044435 | 27 | 133 | 1.6 | 9.7 | 0.00 | 0.00 | 0.00 | 63 | 1010.9 |
| 20260904043434 | 28 | 167 | 1.6 | 9.7 | 0.00 | 0.00 | 0.00 | 63 | 1010.9 |
| 20260904042401 | 28 | 184 | 1.6 | 8.0 | 0.00 | 0.00 | 0.00 | 64 | 1010.9 |
| 20260904041353 | 28 | 162 | 0.0 | 6.4 | 0.00 | 0.00 | 0.00 | 64 | 1010.8 |
| 20260904040320 | 28 | 167 | 1.6 | 9.7 | 0.00 | 0.00 | 0.00 | 64 | 1010.9 |
| 20260904034148 | 28 | 153 | 1.6 | 9.7 | 0.00 | 0.00 | 0.00 | 63 | 1010.9 |
| 20260904033159 | 28 | 155 | 1.6 | 11.3 | 0.00 | 0.00 | 0.00 | 63 | 1010.9 |
| 20260904032155 | 28 | 113 | 3.2 | 12.9 | 0.00 | 0.00 | 0.00 | 62 | 1011.0 |
| 20260904031154 | 28 | 121 | 3.2 | 14.5 | 0.00 | 0.00 | 0.00 | 62 | 1010.9 |
| 20260904030152 | 28 | 90 | 3.2 | 14.5 | 0.00 | 0.00 | 0.00 | 63 | 1010.8 |
| 20260904025129 | 28 | 101 | 1.6 | 9.7 | 0.00 | 0.00 | 0.00 | 64 | 1010.7 |
| 20260904024126 | 29 | 165 | 1.6 | 14.5 | 0.00 | 0.00 | 0.00 | 64 | 1010.5 |
| 20260904023143 | 29 | 225 | 3.2 | 14.5 | 0.00 | 0.00 | 0.00 | 64 | 1010.4 |
| 20260904022117 | 29 | 136 | 3.2 | 11.3 | 0.00 | 0.00 | 0.00 | 64 | 1010.2 |
| 20260904021121 | 30 | 187 | 3.2 | 11.3 | 0.00 | 0.00 | 0.00 | 62 | 1010.0 |
| 20260904020127 | 30 | 109 | 3.2 | 11.3 | 0.00 | 0.00 | 0.00 | 61 | 1009.8 |
| 20260904015109 | 30 | 219 | 3.2 | 11.3 | 0.00 | 0.00 | 0.00 | 59 | 1009.5 |
| 20260904014042 | 30 | 113 | 3.2 | 11.3 | 0.00 | 0.00 | 0.00 | 58 | 1009.4 |
| 20260904013017 | 30 | 144 | 3.2 | 11.3 | 0.00 | 0.00 | 0.00 | 58 | 1009.3 |
| 20260904011944 | 31 | 161 | 3.2 | 19.3 | 0.00 | 0.00 | 0.00 | 58 | 1009.2 |
| 20260904010925 | 31 | 141 | 3.2 | 19.3 | 0.00 | 0.00 | 0.00 | 58 | 1009.0 |
| 20260904005939 | 31 | 143 | 1.6 | 11.3 | 0.00 | 0.00 | 0.00 | 58 | 1009.0 |
| 20260904004925 | 31 | 88 | 3.2 | 11.3 | 0.00 | 0.00 | 0.00 | 58 | 1008.8 |
| 20260904003848 | 31 | 257 | 3.2 | 12.9 | 0.00 | 0.00 | 0.00 | 57 | 1008.8 |
| 20260904002847 | 31 | 183 | 1.6 | 12.9 | 0.00 | 0.00 | 0.00 | 57 | 1008.8 |
| 20260904001826 | 32 | 187 | 3.2 | 11.3 | 0.00 | 0.00 | 0.00 | 57 | 1008.8 |
| 20260904000805 | 32 | 122 | 3.2 | 14.5 | 0.00 | 0.00 | 0.00 | 56 | 1008.6 |
| 20260903233432 | 33 | 147 | 3.2 | 12.9 | 0.00 | 0.00 | 0.00 | 55 | 1008.4 |
| 20260903232403 | 33 | 164 | 3.2 | 12.9 | 0.00 | 0.00 | 0.00 | 56 | 1008.4 |
| 20260903231354 | 33 | 164 | 3.2 | 12.9 | 0.00 | 0.00 | 0.00 | 56 | 1008.2 |
| 20260903230319 | 33 | 153 | 4.8 | 12.9 | 0.00 | 0.00 | 0.00 | 55 | 1008.1 |
| 20260903224154 | 33 | 109 | 3.2 | 14.5 | 0.00 | 0.00 | 0.00 | 53 | 1008.2 |
| 20260903223153 | 33 | 104 | 3.2 | 9.7 | 0.00 | 0.00 | 0.00 | 55 | 1008.2 |
| 20260903222118 | 33 | 153 | 3.2 | 17.7 | 0.00 | 0.00 | 0.00 | 55 | 1008.2 |
| 20260903221048 | 33 | 136 | 4.8 | 17.7 | 0.00 | 0.00 | 0.00 | 54 | 1008.3 |
| 20260903220050 | 34 | 131 | 3.2 | 17.7 | 0.00 | 0.00 | 0.00 | 53 | 1008.2 |
| 20260903215025 | 34 | 127 | 3.2 | 14.5 | 0.00 | 0.00 | 0.00 | 54 | 1008.3 |
| 20260903212910 | 33 | 125 | 6.4 | 17.7 | 0.00 | 0.00 | 0.00 | 55 | 1008.3 |
| 20260903211858 | 34 | 132 | 6.4 | 14.5 | 0.00 | 0.00 | 0.00 | 54 | 1008.4 |
| 20260903204552 | 33 | 116 | 3.2 | 16.1 | 0.00 | 0.00 | 0.00 | 56 | 1008.9 |
| 20260903203554 | 33 | 193 | 4.8 | 16.1 | 0.00 | 0.00 | 0.00 | 57 | 1009.0 |
| 20260903202536 | 33 | 149 | 3.2 | 12.9 | 0.00 | 0.00 | 0.00 | 56 | 1009.2 |
| 20260903201536 | 33 | 194 | 3.2 | 19.3 | 0.00 | 0.00 | 0.00 | 55 | 1009.3 |